EN479 EGSU-EGKB

Flight info

Callsign EN479
Flight time N/A
Altitude 4000
Route EGSS DCT EGMT
Aircraft SPIT/L-GVY/S

Departure

Time 2026-04-22 09:03
Airport Duxford Aerodrome (EGSU)

Arrival

Time N/A
Airport London Biggin Hill Airport (EGKB)
Time Latitude Longitude Altitude Speed Heading
2026-04-22 08:49 52.09256 0.12781 112 ft 0 kts 330°
2026-04-22 08:57 52.09270 0.12729 109 ft 6 kts 203°
2026-04-22 08:58 52.09226 0.12715 113 ft 9 kts 180°
2026-04-22 08:58 52.09186 0.12693 116 ft 11 kts 240°
2026-04-22 08:58 52.09131 0.12556 118 ft 16 kts 234°
2026-04-22 08:58 52.09064 0.12484 122 ft 8 kts 200°
2026-04-22 08:59 52.09000 0.12427 125 ft 10 kts 249°
2026-04-22 08:59 52.08964 0.12358 127 ft 9 kts 197°
2026-04-22 08:59 52.08929 0.12340 128 ft 11 kts 199°
2026-04-22 08:59 52.08862 0.12272 128 ft 11 kts 219°
2026-04-22 09:00 52.08778 0.12230 130 ft 9 kts 151°
2026-04-22 09:00 52.08748 0.12315 129 ft 8 kts 98°
2026-04-22 09:00 52.08762 0.12394 124 ft 6 kts 60°
2026-04-22 09:00 52.08763 0.12397 125 ft 0 kts 60°
2026-04-22 09:02 52.08822 0.12523 126 ft 32 kts 56°
2026-04-22 09:02 52.08965 0.12989 121 ft 59 kts 61°
2026-04-22 09:02 52.09236 0.13768 248 ft 98 kts 60°
2026-04-22 09:02 52.09631 0.14798 459 ft 134 kts 57°
2026-04-22 09:03 52.10126 0.15943 1097 ft 109 kts 58°
2026-04-22 09:03 52.10577 0.17016 1367 ft 119 kts 60°
2026-04-22 09:03 52.11069 0.18223 1536 ft 131 kts 59°
2026-04-22 09:03 52.11481 0.19491 1833 ft 129 kts 91°
2026-04-22 09:04 52.10895 0.20572 2090 ft 136 kts 153°
2026-04-22 09:04 52.09907 0.20542 2200 ft 154 kts 176°
2026-04-22 09:04 52.08847 0.19933 1642 ft 192 kts 212°
2026-04-22 09:04 52.08362 0.17966 1715 ft 180 kts 276°
2026-04-22 09:05 52.08750 0.16090 1773 ft 176 kts 299°
2026-04-22 09:05 52.09305 0.14305 1690 ft 181 kts 302°
2026-04-22 09:05 52.09933 0.12521 1599 ft 178 kts 304°
2026-04-22 09:05 52.10578 0.10821 1599 ft 178 kts 306°
2026-04-22 09:06 52.11270 0.09200 1668 ft 172 kts 311°
2026-04-22 09:06 52.11755 0.08208 1880 ft 160 kts 314°